Showing default

SINOD-D 3, 40977

Orbit data source: Space-Track

SINOD-D 3, 40977 is a payload satellite owned by SRI (US) in LEO that was launched on Thu, 08 Oct 2015 UTC via an ATLAS V 401 launch vehicle from the Air Force Western Test Range (AFWTR). Payload-class satellites include a variety of spacecraft equipped with specific instruments for various scientific and technological missions. These include communications satellites like Starlink; space stations such as the ISS; scientific satellites like the Hubble; Earth observation satellites from companies like Planet Labs, Umbra, and HawkEye 360; GPS; miniature CubeSats for education and research; and military/defense satellites.

Loading next visibility...
Identifier
40977, 2015-058P
Orbit
LEO
Last TLE update
16 hours ago
Origin
Manufacturer
SRI
Mission
Operational Commercial Technology
Bus & Motor
CUBESAT 2U, Unknown motor
Mass
2 kg wet, 2 kg dry
Launch date (UTC)
2015-10-08 (10 years ago)
Launch vehicle
ATLAS V 401
Launch site
Air Force Western Test Range (AFWTR)
Object type
Payload
Rocket body
Debris
Shape & HBR
Box, 0.2 m
Radar Cross Section
0.040 m², Small (<0.1 m²)

Expand to show TLE details & history

TLE from 16 hours ago
0 SINOD-D 3
1 40977U 15058P   25170.40243501  .00005115  00000-0  43667-3 0  9991
2 40977  64.7741 325.5597 0151509 194.8712 164.7922 14.90288619 60620
Epoch: 2025-06-19T09:39Z
TLE epoch observation values (Epoch: 2025-06-19T09:39:30.384Z)
Latitude
-0.00002°
Longitude
-87.18754°
Altitude
701.139 km
Speed
7.451 km/s
True Right ascension
21h 42m 14s
True Declination
0° 00' 00"
Sunlit
Object was in full shadow at epoch
Visualization orbit readout
Latitude
6.60023°
Longitude
-86.16649°
Altitude
703.209 km
Speed
7.449 km/s
Apparent Right ascension
22h 57m 26s
Apparent Declination
-16° 22' 27"
Sunlit
Object is in partial shadow
Visualization observer readout
Local Sidereal Time
12:41:29
Azimuth
51.302° ENE
Elevation
-57.377°
Doppler factor
1
Orbital elements
Apogee altitude
701.261 km
Perigee altitude
489.944 km
Semi-major axis
6,973.739 km
Eccentricity
0.01515
Inclination
64.7741°
RAAN
325.5597°
Arg. of periapsis
194.8712°
True anomaly
Unknown
Mean anomaly
164.7922°
Eccentric anomaly
Unknown
Mean motion
3.72687 °/min
Orbital period
96.6 mins
BSTAR
0.00043667
Loading maneuver chart data...
Loading SW <> Apogee altitude chart data...
Loading historical data...
Loading historical data...
Loading historical data...
Loading historical data...
Loading historical data...
Loading historical data...
Loading historical data...

SINOD-D 3 Visibility forecast

Observer location: undefined°, undefined°

Span
Click to sort rows by Start time (UTC) header in descending order
Start Az.
Max El. time (UTC)
Max El. Az.
Max El.
End time (UTC)
End Az.
9 mins2025-06-20 11:32:49.735Z189.711° SSW2025-06-20 11:36:49.735Z136.85° SSE36.153°2025-06-20 11:41:49.735Z43.291° NE
5 mins2025-06-20 13:14:49.735Z277.35° WNW2025-06-20 13:16:49.735Z310.291° NW21.534°2025-06-20 13:19:49.735Z357.837° N
5 mins2025-06-20 20:01:49.735Z4.704° NNE2025-06-20 20:03:49.735Z47.288° ENE24.864°2025-06-20 20:06:49.735Z104.69° ESE
5 mins2025-06-20 21:40:49.735Z293.765° NW2025-06-20 21:42:49.735Z256.576° W22.886°2025-06-20 21:45:49.735Z196.692° SSW
|